Location: ????????
(55.0808°N, 38.5463°E)
Time: 01:39:15
(UTC+00:00)

Nimbus 3 Rocket - Pass Details

Date: 22 September 2024
Orbit: 1072 x 1131 km, 99.9° (Epoch: 03 October)

Event Time Altitude Azimuth Distance (km) Brightness Sun altitude
Rises 20:36:22 0° 20° (NNE) 3,912 8.9 -34.4°
Reaches altitude 10° 20:39:12 10° 30° (NNE) 2,943 8.0 -34.5°
Enters shadow 20:43:32 31° 66° (ENE) 1,814 6.4 -34.6°
